| time (UTC) | temp C | wind direction | speed KPH | gust KPH | rain 1hr cm | rain 24hr cm | rain mn cm | humidity % | barometer mb |
| 20260508073039 | 17 | 268 | 0.0 | 1.6 | 0.00 | 0.00 | 0.00 | 76 | 1017.8 |
| 20260508071556 | 16 | 31 | 0.0 | 0.0 | 0.00 | 0.00 | 0.00 | 75 | 1017.9 |
| 20260508070010 | 16 | 235 | 0.0 | 0.0 | 0.00 | 0.03 | 0.00 | 76 | 1017.9 |
| 20260508064534 | 15 | 122 | 0.0 | 0.0 | 0.00 | 0.03 | 0.00 | 80 | 1017.8 |
| 20260508063051 | 14 | 121 | 0.0 | 0.0 | 0.00 | 0.03 | 0.00 | 82 | 1017.8 |
| 20260508061519 | 13 | 121 | 0.0 | 0.0 | 0.00 | 0.03 | 0.00 | 83 | 1017.5 |
| 20260508060033 | 12 | 121 | 0.0 | 1.6 | 0.00 | 0.03 | 0.00 | 88 | 1017.4 |
| 20260508054604 | 12 | 123 | 0.0 | 0.0 | 0.00 | 0.03 | 0.00 | 89 | 1017.3 |
| 20260508053011 | 11 | 124 | 0.0 | 3.2 | 0.00 | 0.03 | 0.00 | 89 | 1017.3 |
| 20260508051529 | 11 | 125 | 0.0 | 0.0 | 0.00 | 0.03 | 0.00 | 89 | 1017.2 |
| 20260508050032 | 11 | 125 | 0.0 | 0.0 | 0.00 | 0.03 | 0.00 | 90 | 1017.1 |
| 20260508044541 | 11 | 125 | 0.0 | 0.0 | 0.00 | 0.03 | 0.00 | 91 | 1017.1 |
| 20260508043005 | 10 | 125 | 0.0 | 0.0 | 0.00 | 0.03 | 0.00 | 90 | 1017.0 |
| 20260508041514 | 10 | 125 | 0.0 | 0.0 | 0.00 | 0.03 | 0.00 | 89 | 1016.8 |
| 20260508040021 | 11 | 124 | 0.0 | 0.0 | 0.00 | 0.03 | 0.00 | 89 | 1016.9 |
| 20260508034530 | 10 | 124 | 0.0 | 0.0 | 0.00 | 0.03 | 0.00 | 89 | 1016.9 |
| 20260508033056 | 10 | 124 | 0.0 | 0.0 | 0.00 | 0.03 | 0.00 | 89 | 1016.9 |
| 20260508031527 | 10 | 79 | 0.0 | 1.6 | 0.00 | 0.03 | 0.00 | 90 | 1016.7 |
| 20260508030017 | 10 | 308 | 0.0 | 0.0 | 0.00 | 0.03 | 0.00 | 90 | 1016.3 |
| 20260508024549 | 10 | 302 | 0.0 | 0.0 | 0.00 | 0.03 | 0.00 | 91 | 1016.3 |
| 20260508023022 | 10 | 277 | 0.0 | 0.0 | 0.00 | 0.03 | 0.00 | 91 | 1016.2 |
| 20260508021525 | 10 | 277 | 0.0 | 0.0 | 0.00 | 0.03 | 0.00 | 91 | 1016.2 |
| 20260508020007 | 10 | 277 | 0.0 | 0.0 | 0.00 | 0.03 | 0.00 | 91 | 1016.3 |
| 20260508014546 | 10 | 277 | 0.0 | 0.0 | 0.00 | 0.03 | 0.00 | 91 | 1016.4 |
| 20260508013046 | 10 | 277 | 0.0 | 0.0 | 0.00 | 0.03 | 0.00 | 90 | 1016.4 |
| 20260508011503 | 10 | 276 | 0.0 | 0.0 | 0.00 | 0.03 | 0.00 | 90 | 1016.3 |
| 20260508010003 | 10 | 276 | 0.0 | 0.0 | 0.00 | 0.05 | 0.00 | 90 | 1016.3 |
| 20260508004530 | 10 | 276 | 0.0 | 0.0 | 0.00 | 0.05 | 0.00 | 90 | 1016.3 |
| 20260508003057 | 10 | 276 | 0.0 | 0.0 | 0.00 | 0.05 | 0.00 | 90 | 1016.4 |
| 20260508001508 | 10 | 276 | 0.0 | 0.0 | 0.00 | 0.05 | 0.00 | 90 | 1016.3 |
| 20260508000052 | 10 | 276 | 0.0 | 0.0 | 0.00 | 0.05 | 0.00 | 89 | 1016.4 |
| 20260507234517 | 10 | 276 | 0.0 | 0.0 | 0.00 | 0.10 | 0.00 | 89 | 1016.3 |
| 20260507233047 | 10 | 276 | 0.0 | 0.0 | 0.00 | 0.10 | 0.00 | 89 | 1016.3 |
| 20260507231512 | 11 | 276 | 0.0 | 0.0 | 0.00 | 0.10 | 0.00 | 89 | 1016.3 |
| 20260507230015 | 11 | 276 | 0.0 | 0.0 | 0.00 | 0.13 | 0.00 | 89 | 1016.4 |
| 20260507224528 | 11 | 276 | 0.0 | 0.0 | 0.00 | 0.13 | 0.00 | 89 | 1016.3 |
| 20260507223051 | 11 | 277 | 0.0 | 0.0 | 0.00 | 0.13 | 0.00 | 88 | 1016.4 |
| 20260507221508 | 11 | 161 | 0.0 | 0.0 | 0.00 | 0.13 | 0.00 | 89 | 1016.4 |
| 20260507220012 | 11 | 240 | 0.0 | 0.0 | 0.00 | 0.25 | 0.13 | 88 | 1016.2 |
| 20260507214538 | 11 | 240 | 0.0 | 0.0 | 0.00 | 0.25 | 0.13 | 88 | 1016.0 |
| 20260507213046 | 12 | 240 | 0.0 | 0.0 | 0.00 | 0.25 | 0.13 | 87 | 1015.7 |
| 20260507211511 | 12 | 240 | 0.0 | 0.0 | 0.00 | 0.25 | 0.13 | 86 | 1015.8 |
| 20260507210031 | 12 | 240 | 0.0 | 0.0 | 0.00 | 0.38 | 0.13 | 85 | 1015.9 |
| 20260507204600 | 12 | 240 | 0.0 | 0.0 | 0.00 | 0.38 | 0.13 | 86 | 1015.8 |
| 20260507203016 | 12 | 240 | 0.0 | 0.0 | 0.00 | 0.38 | 0.13 | 85 | 1015.7 |
| 20260507201531 | 12 | 240 | 0.0 | 0.0 | 0.00 | 0.38 | 0.13 | 84 | 1015.3 |
| 20260507200029 | 12 | 240 | 0.0 | 0.0 | 0.00 | 0.38 | 0.13 | 84 | 1015.1 |
| 20260507194545 | 13 | 240 | 0.0 | 0.0 | 0.00 | 0.38 | 0.13 | 83 | 1014.9 |
| 20260507193009 | 13 | 240 | 0.0 | 0.0 | 0.00 | 0.38 | 0.13 | 82 | 1014.7 |
| 20260507191522 | 14 | 240 | 0.0 | 0.0 | 0.00 | 0.38 | 0.13 | 80 | 1014.6 |
| 20260507190005 | 15 | 240 | 0.0 | 0.0 | 0.00 | 0.38 | 0.13 | 79 | 1014.5 |
| 20260507184519 | 16 | 240 | 0.0 | 0.0 | 0.00 | 0.38 | 0.13 | 77 | 1014.2 |
| 20260507183047 | 16 | 240 | 0.0 | 0.0 | 0.00 | 0.38 | 0.13 | 75 | 1014.2 |
| 20260507181511 | 17 | 240 | 0.0 | 0.0 | 0.00 | 0.38 | 0.13 | 71 | 1014.0 |
| 20260507180027 | 18 | 240 | 0.0 | 0.0 | 0.00 | 0.99 | 0.13 | 68 | 1013.6 |
| 20260507174558 | 19 | 240 | 0.0 | 0.0 | 0.00 | 0.99 | 0.13 | 62 | 1013.5 |
| 20260507173020 | 20 | 240 | 0.0 | 0.0 | 0.00 | 0.99 | 0.13 | 55 | 1013.4 |
| 20260507171536 | 21 | 240 | 0.0 | 0.0 | 0.00 | 0.99 | 0.13 | 53 | 1013.4 |
| 20260507170034 | 20 | 240 | 0.0 | 0.0 | 0.00 | 0.99 | 0.13 | 52 | 1013.5 |
| 20260507164547 | 20 | 240 | 0.0 | 0.0 | 0.00 | 0.99 | 0.13 | 49 | 1013.3 |
| 20260507163010 | 21 | 232 | 0.0 | 1.6 | 0.00 | 0.99 | 0.13 | 47 | 1013.4 |
| 20260507161523 | 21 | 237 | 0.0 | 1.6 | 0.00 | 0.99 | 0.13 | 47 | 1013.4 |
| 20260507160021 | 21 | 239 | 0.0 | 0.0 | 0.00 | 0.99 | 0.13 | 49 | 1013.2 |
| 20260507154532 | 21 | 225 | 0.0 | 1.6 | 0.00 | 0.99 | 0.13 | 46 | 1013.2 |
| 20260507153102 | 21 | 237 | 0.0 | 4.8 | 0.00 | 0.99 | 0.13 | 49 | 1013.2 |
| 20260507151527 | 21 | 260 | 0.0 | 1.6 | 0.00 | 0.99 | 0.13 | 49 | 1013.3 |
| 20260507150029 | 21 | 239 | 0.0 | 11.3 | 0.00 | 0.99 | 0.13 | 49 | 1013.4 |
| 20260507144539 | 21 | 237 | 0.0 | 8.0 | 0.00 | 0.99 | 0.13 | 49 | 1013.5 |
| 20260507143003 | 21 | 215 | 0.0 | 9.7 | 0.00 | 0.99 | 0.13 | 51 | 1013.4 |
| 20260507141530 | 21 | 231 | 0.0 | 4.8 | 0.00 | 0.99 | 0.13 | 53 | 1013.5 |
| 20260507140026 | 21 | 161 | 0.0 | 9.7 | 0.00 | 0.99 | 0.13 | 55 | 1013.7 |
| 20260507134543 | 21 | 221 | 1.6 | 11.3 | 0.00 | 0.99 | 0.13 | 52 | 1014.0 |
| 20260507133004 | 21 | 265 | 0.0 | 6.4 | 0.00 | 0.99 | 0.13 | 52 | 1014.1 |
| 20260507131527 | 20 | 304 | 0.0 | 1.6 | 0.00 | 0.99 | 0.13 | 51 | 1014.3 |
| 20260507130003 | 20 | 244 | 0.0 | 1.6 | 0.00 | 1.42 | 0.13 | 56 | 1014.2 |
| 20260507124532 | 19 | 237 | 0.0 | 6.4 | 0.00 | 1.42 | 0.13 | 59 | 1014.3 |
| 20260507123042 | 20 | 231 | 0.0 | 6.4 | 0.00 | 1.42 | 0.13 | 60 | 1014.4 |
| 20260507121553 | 19 | 283 | 0.0 | 17.7 | 0.00 | 1.42 | 0.13 | 62 | 1014.4 |
| 20260507120054 | 20 | 285 | 0.0 | 1.6 | 0.00 | 1.42 | 0.13 | 65 | 1014.6 |
| 20260507114516 | 18 | 234 | 0.0 | 14.5 | 0.00 | 2.18 | 0.13 | 64 | 1014.8 |
| 20260507113046 | 18 | 310 | 1.6 | 16.1 | 0.00 | 2.18 | 0.13 | 65 | 1014.7 |
| 20260507111510 | 18 | 279 | 0.0 | 3.2 | 0.00 | 2.18 | 0.13 | 69 | 1014.8 |
| 20260507110010 | 18 | 230 | 0.0 | 19.3 | 0.00 | 2.59 | 0.13 | 69 | 1014.9 |
| 20260507104511 | 18 | 269 | 0.0 | 9.7 | 0.00 | 2.59 | 0.13 | 69 | 1015.2 |
| 20260507103040 | 17 | 206 | 0.0 | 17.7 | 0.00 | 2.59 | 0.13 | 69 | 1015.4 |
| 20260507101510 | 17 | 213 | 0.0 | 6.4 | 0.00 | 2.59 | 0.13 | 70 | 1015.4 |
| 20260507100031 | 17 | 240 | 1.6 | 8.0 | 0.00 | 2.59 | 0.13 | 68 | 1015.5 |
| 20260507094539 | 17 | 237 | 1.6 | 12.9 | 0.00 | 2.59 | 0.13 | 69 | 1015.6 |
| 20260507093003 | 17 | 221 | 0.0 | 1.6 | 0.00 | 2.59 | 0.13 | 73 | 1015.4 |
| 20260507091550 | 16 | 222 | 0.0 | 3.2 | 0.00 | 2.59 | 0.13 | 77 | 1015.4 |
| 20260507090035 | 16 | 257 | 0.0 | 9.7 | 0.00 | 2.59 | 0.13 | 76 | 1015.4 |
| 20260507084600 | 15 | 290 | 0.0 | 12.9 | 0.00 | 2.59 | 0.13 | 76 | 1015.4 |
| 20260507083107 | 15 | 256 | 0.0 | 0.0 | 0.00 | 2.59 | 0.13 | 77 | 1015.3 |
| 20260507081534 | 15 | 304 | 0.0 | 0.0 | 0.00 | 2.59 | 0.13 | 78 | 1015.2 |
| 20260507080017 | 14 | 285 | 0.0 | 0.0 | 0.00 | 2.59 | 0.13 | 81 | 1015.2 |
| 20260507074544 | 14 | 321 | 0.0 | 3.2 | 0.03 | 2.59 | 0.13 | 81 | 1015.3 |